KT5AL Weather Reports


Display with metric or nautical units.
time (UTC)temp
F
wind
direction
speed
MPH
gust
MPH
rain 1hr
in
rain 24hr
in
rain mn
in
humidity
%
barometer
mb
20260508031507 62 157 2.0 2.0 0.00 0.00 0.00 77 1017.1
20260508031004 62 157 3.0 4.0 0.00 0.00 0.00 76 1017.1
20260508030507 62 157 3.0 4.0 0.00 0.00 0.00 76 1016.8
20260508030004 62 135 4.0 4.0 0.00 0.00 0.00 75 1016.8
20260508025506 62 157 4.0 5.0 0.00 0.00 0.00 74 1016.5
20260508025009 63 157 3.0 4.0 0.00 0.00 0.00 72 1016.5
20260508024506 63 135 4.0 4.0 0.00 0.00 0.00 72 1016.5
20260508024009 63 135 3.0 3.0 0.00 0.00 0.00 72 1016.5
20260508023506 63 157 3.0 4.0 0.00 0.00 0.00 72 1016.5
20260508023008 64 157 3.0 5.0 0.00 0.00 0.00 72 1016.5
20260508022505 64 157 5.0 6.0 0.00 0.00 0.00 72 1015.8
20260508022008 64 180 4.0 5.0 0.00 0.00 0.00 72 1015.8
20260508021505 64 180 5.0 6.0 0.00 0.00 0.00 71 1015.8
20260508021008 64 180 5.0 7.0 0.00 0.00 0.00 71 1015.8
20260508020505 64 157 5.0 6.0 0.00 0.00 0.00 70 1015.8
20260508020008 65 157 4.0 6.0 0.00 0.00 0.00 69 1015.8
20260508015505 65 157 5.0 7.0 0.00 0.00 0.00 69 1015.4
20260508015008 65 157 5.0 7.0 0.00 0.00 0.00 69 1015.4
20260508014505 65 180 5.0 7.0 0.00 0.00 0.00 67 1015.4
20260508014028 66 157 5.0 7.0 0.00 0.00 0.00 66 1015.4
20260508013505 66 135 8.0 10.0 0.00 0.00 0.00 66 1015.1
20260508013008 67 157 4.0 7.0 0.00 0.00 0.00 62 1015.1
20260508012505 67 135 5.0 6.0 0.00 0.00 0.00 60 1015.1
20260508012008 68 157 6.0 8.0 0.00 0.00 0.00 59 1015.1
20260508011505 68 180 6.0 8.0 0.00 0.00 0.00 57 1015.1
20260508011008 68 180 5.0 6.0 0.00 0.00 0.00 56 1015.1
20260508010505 68 180 6.0 7.0 0.00 0.00 0.00 56 1015.1
20260508010008 68 180 6.0 6.0 0.00 0.00 0.00 56 1015.1
20260508005505 69 180 6.0 7.0 0.00 0.00 0.00 55 1014.4
20260508005010 69 180 4.0 5.0 0.00 0.00 0.00 53 1014.4
20260508004505 69 157 4.0 6.0 0.00 0.00 0.00 53 1014.4
20260508004008 69 157 3.0 4.0 0.00 0.00 0.00 51 1014.4
20260508003505 69 157 2.0 3.0 0.00 0.00 0.00 51 1014.4
20260508003003 70 157 3.0 4.0 0.00 0.00 0.00 50 1014.4
20260508002507 70 180 4.0 5.0 0.00 0.00 0.00 50 1014.4
20260508002004 71 135 5.0 7.0 0.00 0.00 0.00 50 1014.4
20260508001507 71 180 4.0 5.0 0.00 0.00 0.00 50 1013.8
20260508001004 72 157 4.0 5.0 0.00 0.00 0.00 49 1013.8
20260508000507 72 135 5.0 6.0 0.00 0.00 0.00 48 1014.1
20260508000004 73 157 6.0 7.0 0.00 0.00 0.00 46 1014.1
20260507235507 73 180 5.0 8.0 0.00 0.00 0.00 46 1013.8
20260507235004 73 135 6.0 8.0 0.00 0.00 0.00 46 1013.8
20260507234507 74 157 8.0 9.0 0.00 0.00 0.00 44 1013.4
20260507234004 74 157 5.0 7.0 0.00 0.00 0.00 45 1013.4
20260507233545 74 157 5.0 9.0 0.00 0.00 0.00 45 1013.4
20260507233003 74 112 4.0 6.0 0.00 0.00 0.00 45 1013.4
20260507232506 74 157 3.0 4.0 0.00 0.00 0.00 45 1013.8
20260507232003 74 112 3.0 9.0 0.00 0.00 0.00 45 1013.8
20260507231506 73 135 6.0 8.0 0.00 0.00 0.00 46 1013.8
20260507231003 73 112 5.0 8.0 0.00 0.00 0.00 47 1013.8
20260507230506 73 112 7.0 8.0 0.00 0.00 0.00 46 1013.8
20260507230003 73 157 6.0 7.0 0.00 0.00 0.00 46 1013.8
20260507225506 73 90 6.0 7.0 0.00 0.00 0.00 45 1014.1
20260507225003 73 135 5.0 6.0 0.00 0.00 0.00 46 1014.1
20260507224505 73 112 6.0 8.0 0.00 0.00 0.00 48 1014.4
20260507224008 72 90 6.0 7.0 0.00 0.00 0.00 48 1014.4
20260507223505 72 112 3.0 3.0 0.00 0.00 0.00 48 1014.4
20260507223008 71 157 4.0 5.0 0.00 0.00 0.00 48 1014.4
20260507222504 71 135 6.0 8.0 0.00 0.00 0.00 47 1014.8
20260507222007 72 90 5.0 6.0 0.00 0.00 0.00 47 1014.8
20260507221504 72 90 3.0 7.0 0.00 0.00 0.00 48 1014.8
20260507221007 72 157 4.0 6.0 0.00 0.00 0.00 48 1014.8
20260507220504 72 112 6.0 8.0 0.00 0.00 0.00 49 1014.8
20260507220007 71 157 6.0 8.0 0.00 0.00 0.00 48 1014.8
20260507215504 71 112 6.0 8.0 0.00 0.00 0.00 48 1014.8
20260507215005 72 135 6.0 8.0 0.00 0.00 0.00 48 1014.8
20260507214508 72 157 4.0 6.0 0.00 0.00 0.00 47 1014.8
20260507214005 72 157 4.0 6.0 0.00 0.00 0.00 46 1014.8
20260507213508 73 157 8.0 10.0 0.00 0.00 0.00 46 1014.4
20260507213032 73 90 5.0 7.0 0.00 0.00 0.00 46 1014.4
20260507212508 73 180 5.0 9.0 0.00 0.00 0.00 46 1014.4
20260507212003 73 90 5.0 7.0 0.00 0.00 0.00 47 1014.4
20260507211506 73 180 7.0 10.0 0.00 0.00 0.00 46 1015.1
20260507211003 73 112 1.0 6.0 0.00 0.00 0.00 47 1015.1
20260507210506 71 22 4.0 5.0 0.00 0.00 0.00 49 1014.8
20260507210003 71 22 5.0 8.0 0.00 0.00 0.00 48 1014.8
20260507205506 72 67 7.0 8.0 0.00 0.00 0.00 46 1014.8
20260507205009 72 67 6.0 8.0 0.00 0.00 0.00 47 1014.8
20260507204506 71 360 1.0 2.0 0.00 0.00 0.00 48 1014.8
20260507204009 71 67 6.0 9.0 0.00 0.00 0.00 48 1014.8
20260507203506 71 22 5.0 7.0 0.00 0.00 0.00 47 1015.1
20260507203008 71 67 8.0 10.0 0.00 0.00 0.00 48 1015.1
20260507202505 71 22 6.0 7.0 0.00 0.00 0.00 47 1015.4
20260507202010 71 315 4.0 6.0 0.00 0.00 0.00 47 1015.4
20260507201505 71 45 4.0 6.0 0.00 0.00 0.00 48 1015.4
20260507201008 71 45 7.0 9.0 0.00 0.00 0.00 47 1015.4
20260507200505 71 45 7.0 11.0 0.00 0.00 0.00 48 1015.8
20260507200008 71 22 6.0 8.0 0.00 0.00 0.00 48 1015.8
20260507195505 70 360 4.0 6.0 0.00 0.00 0.00 48 1015.8
20260507195006 70 45 5.0 7.0 0.00 0.00 0.00 49 1015.8
20260507194503 70 45 9.0 12.0 0.00 0.00 0.00 48 1015.8
20260507194006 70 112 6.0 9.0 0.00 0.00 0.00 48 1015.8
20260507193503 71 337 7.0 10.0 0.00 0.00 0.00 50 1016.5
20260507193006 70 337 7.0 8.0 0.00 0.00 0.00 48 1016.5
20260507192534 70 67 6.0 7.0 0.00 0.00 0.00 50 1016.5
20260507192005 69 360 9.0 11.0 0.00 0.00 0.00 51 1016.5
20260507191508 70 22 9.0 14.0 0.00 0.00 0.00 50 1016.5
20260507191005 71 90 5.0 7.0 0.00 0.00 0.00 48 1016.5
20260507190508 71 292 4.0 7.0 0.00 0.00 0.00 51 1016.8
20260507190006 69 22 4.0 10.0 0.00 0.00 0.00 50 1016.8
20260507185511 70 67 7.0 10.0 0.00 0.00 0.00 50 1016.8
20260507185006 69 67 9.0 10.0 0.00 0.00 0.00 49 1016.8
20260507184509 68 22 9.0 11.0 0.00 0.00 0.00 49 1017.1
20260507184006 69 67 7.0 10.0 0.00 0.00 0.00 52 1017.1
20260507183503 69 67 5.0 6.0 0.00 0.00 0.00 50 1017.1
20260507183006 69 45 8.0 10.0 0.00 0.00 0.00 52 1017.1
20260507182509 68 360 5.0 7.0 0.00 0.00 0.00 51 1017.1
20260507182006 68 22 10.0 14.0 0.00 0.00 0.00 51 1017.1
20260507181509 67 337 8.0 10.0 0.00 0.00 0.00 50 1017.5
20260507181006 68 337 3.0 4.0 0.00 0.00 0.00 51 1017.5
20260507180503 67 337 7.0 10.0 0.00 0.00 0.00 49 1017.8
20260507180006 68 22 8.0 12.0 0.00 0.00 0.00 51 1017.8
20260507175503 67 337 5.0 8.0 0.00 0.00 0.00 50 1018.2
20260507175006 67 45 7.0 10.0 0.00 0.00 0.00 50 1018.2
20260507174503 68 67 6.0 10.0 0.00 0.00 0.00 53 1018.5
20260507174005 66 337 5.0 8.0 0.00 0.00 0.00 50 1018.5
20260507173510 66 22 8.0 12.0 0.00 0.00 0.00 50 1018.5
20260507173006 67 360 6.0 7.0 0.00 0.00 0.00 53 1018.5
20260507172503 67 315 7.0 9.0 0.00 0.00 0.00 50 1018.8
20260507172038 67 337 6.0 9.0 0.00 0.00 0.00 50 1018.8
20260507171503 66 45 7.0 9.0 0.00 0.00 0.00 53 1019.2
20260507171006 66 22 6.0 11.0 0.00 0.00 0.00 53 1019.2
20260507170503 66 22 7.0 9.0 0.00 0.00 0.00 50 1019.2
20260507170006 66 45 7.0 12.0 0.00 0.00 0.00 50 1019.2
20260507165503 65 67 8.0 10.0 0.00 0.00 0.00 52 1019.2
20260507165006 65 90 0.0 4.0 0.00 0.00 0.00 52 1019.2
20260507164503 65 45 8.0 10.0 0.00 0.00 0.00 55 1019.2
20260507164006 65 67 6.0 9.0 0.00 0.00 0.00 52 1019.2
20260507163505 65 22 8.0 10.0 0.00 0.00 0.00 53 1019.5
20260507163008 65 360 5.0 7.0 0.00 0.00 0.00 57 1019.5
20260507162505 65 360 8.0 10.0 0.00 0.00 0.00 55 1019.9
20260507162003 65 45 7.0 10.0 0.00 0.00 0.00 57 1019.9
20260507161508 64 22 3.0 7.0 0.00 0.00 0.00 59 1019.9
20260507161005 64 360 8.0 10.0 0.00 0.00 0.00 57 1019.9
20260507160508 63 22 8.0 11.0 0.00 0.00 0.00 60 1019.9
20260507160005 63 360 6.0 7.0 0.00 0.00 0.00 60 1019.9
20260507155508 63 67 6.0 8.0 0.00 0.00 0.00 64 1020.2
20260507155003 62 360 6.0 8.0 0.00 0.00 0.00 64 1020.2
20260507154506 62 360 8.0 10.0 0.00 0.00 0.00 62 1020.5
20260507154003 62 337 5.0 6.0 0.00 0.00 0.00 66 1020.5
20260507153506 62 22 6.0 8.0 0.00 0.00 0.00 67 1020.5
20260507153003 62 337 7.0 9.0 0.00 0.00 0.00 67 1020.5
20260507152506 61 67 5.0 6.0 0.00 0.00 0.00 73 1020.9
20260507152003 60 22 6.0 6.0 0.00 0.01 0.00 71 1020.9
20260507151532 61 22 6.0 9.0 0.00 0.01 0.00 70 1020.5
20260507151003 61 22 8.0 9.0 0.00 0.01 0.00 73 1020.5
20260507150506 60 45 4.0 5.0 0.00 0.01 0.00 75 1020.9
20260507150003 60 45 5.0 7.0 0.00 0.01 0.00 76 1020.9
20260507145506 60 360 7.0 8.0 0.00 0.01 0.00 77 1021.5
20260507145006 60 22 6.0 7.0 0.00 0.01 0.00 79 1021.5
20260507144503 59 360 5.0 5.0 0.00 0.01 0.00 82 1021.5
20260507144006 58 360 4.0 6.0 0.00 0.01 0.00 81 1021.5
20260507143503 58 45 5.0 6.0 0.00 0.01 0.00 83 1021.9
20260507143006 58 337 6.0 7.0 0.00 0.01 0.00 84 1021.9
20260507142509 58 337 5.0 8.0 0.00 0.01 0.00 84 1022.2
20260507142005 57 22 5.0 8.0 0.00 0.01 0.00 84 1022.2
20260507141505 57 337 5.0 7.0 0.00 0.01 0.00 89 1022.6
20260507141008 56 22 6.0 8.0 0.00 0.01 0.00 88 1022.6
20260507140505 56 337 5.0 8.0 0.00 0.01 0.00 91 1022.9
20260507140008 56 22 4.0 5.0 0.00 0.01 0.00 93 1022.9
20260507135506 55 360 7.0 8.0 0.00 0.01 0.00 93 1023.2
20260507135011 54 337 6.0 8.0 0.00 0.01 0.00 95 1023.2
20260507134507 54 360 5.0 8.0 0.00 0.01 0.00 98 1023.6
20260507134004 54 337 6.0 7.0 0.00 0.01 0.00 99 1023.6
20260507133507 53 337 6.0 7.0 0.00 0.01 0.00 98 1023.9
20260507133004 52 337 5.0 7.0 0.00 0.01 0.00 99 1023.9
20260507132503 52 337 5.0 6.0 0.00 0.01 0.00 100 1023.9
20260507132006 52 337 5.0 7.0 0.00 0.01 0.00 100 1023.9
20260507131509 52 337 7.0 8.0 0.00 0.01 0.00 100 1023.9
20260507131032 51 337 6.0 7.0 0.00 0.01 0.00 100 1023.9
20260507130504 51 337 6.0 7.0 0.00 0.01 0.00 100 1024.3
20260507130004 50 337 4.0 5.0 0.00 0.01 0.00 100 1024.3
20260507125508 50 337 5.0 7.0 0.00 0.01 0.00 100 1024.3
20260507125005 49 315 4.0 5.0 0.00 0.01 0.00 100 1024.3
20260507124508 49 315 4.0 5.0 0.00 0.01 0.00 100 1024.3
20260507124005 49 315 4.0 5.0 0.00 0.01 0.00 100 1024.3
20260507123508 49 315 5.0 6.0 0.00 0.01 0.00 100 1023.9
20260507123007 49 315 6.0 7.0 0.00 0.01 0.00 100 1023.9
20260507122504 48 337 7.0 8.0 0.00 0.01 0.00 100 1023.9
20260507122007 48 337 6.0 7.0 0.00 0.01 0.00 100 1023.9
20260507121504 48 315 6.0 7.0 0.00 0.01 0.00 100 1023.9
20260507121007 48 315 6.0 7.0 0.00 0.01 0.00 100 1023.9
20260507120504 48 315 6.0 7.0 0.00 0.01 0.00 100 1023.9
20260507120007 48 315 4.0 5.0 0.00 0.01 0.00 100 1023.9
20260507115504 48 315 4.0 6.0 0.00 0.01 0.00 100 1023.9
20260507115007 48 315 6.0 7.0 0.00 0.01 0.00 100 1023.9
20260507114504 48 292 6.0 8.0 0.00 0.01 0.00 100 1023.9
20260507114007 49 292 6.0 8.0 0.00 0.01 0.00 100 1023.9
20260507113505 49 292 6.0 7.0 0.00 0.01 0.00 100 1023.9
20260507113008 49 292 7.0 8.0 0.00 0.01 0.00 100 1023.9
20260507112505 49 292 6.0 7.0 0.00 0.01 0.00 100 1023.9
20260507112010 49 292 6.0 7.0 0.00 0.01 0.00 100 1023.9
20260507111506 49 270 6.0 7.0 0.00 0.01 0.00 100 1023.9
20260507111008 49 270 4.0 5.0 0.00 0.01 0.00 100 1023.9
20260507110531 49 270 4.0 5.0 0.00 0.01 0.00 100 1023.6
20260507110008 49 270 4.0 5.0 0.00 0.01 0.00 100 1023.6
20260507105505 49 270 4.0 5.0 0.00 0.01 0.00 100 1023.6
20260507105008 49 225 5.0 6.0 0.00 0.01 0.00 100 1023.6
20260507104505 49 315 5.0 6.0 0.00 0.01 0.00 100 1023.6
20260507104008 49 315 6.0 7.0 0.00 0.01 0.00 100 1023.6
20260507103505 49 315 5.0 6.0 0.00 0.01 0.00 100 1023.6
20260507103008 49 315 6.0 7.0 0.00 0.01 0.00 100 1023.6
20260507102505 49 315 6.0 7.0 0.00 0.01 0.00 100 1023.2
20260507102008 49 315 6.0 7.0 0.00 0.01 0.00 100 1023.2
20260507101506 49 315 5.0 6.0 0.00 0.01 0.00 100 1022.9
20260507101008 49 315 5.0 6.0 0.00 0.01 0.00 100 1022.9
20260507100505 49 315 4.0 5.0 0.00 0.01 0.00 100 1022.6
20260507100008 50 315 4.0 5.0 0.00 0.01 0.00 100 1022.6
20260507095505 50 337 5.0 6.0 0.00 0.01 0.00 100 1022.2
20260507095008 50 337 6.0 7.0 0.00 0.01 0.00 100 1022.2
20260507094505 50 337 5.0 6.0 0.00 0.01 0.00 100 1022.2
20260507094008 50 337 4.0 5.0 0.00 0.01 0.00 100 1022.2
20260507093505 50 337 4.0 6.0 0.00 0.01 0.00 100 1022.2
20260507093004 50 337 4.0 6.0 0.00 0.01 0.00 100 1022.2
20260507092507 50 337 4.0 5.0 0.00 0.01 0.00 100 1022.2
20260507092004 50 337 3.0 4.0 0.00 0.01 0.00 100 1022.2
20260507091509 50 337 4.0 5.0 0.00 0.01 0.00 100 1022.2
20260507091006 50 337 4.0 5.0 0.00 0.01 0.00 100 1022.2
20260507090509 50 337 5.0 6.0 0.00 0.01 0.00 100 1022.2
20260507090006 50 337 4.0 6.0 0.00 0.01 0.00 100 1022.2
20260507085504 50 360 4.0 5.0 0.00 0.01 0.00 100 1021.9
20260507085007 50 360 4.0 5.0 0.00 0.01 0.00 100 1021.9
20260507084504 50 337 5.0 6.0 0.00 0.01 0.00 100 1021.9
20260507084007 50 360 5.0 7.0 0.00 0.01 0.00 100 1021.9
20260507083504 50 337 4.0 5.0 0.00 0.01 0.00 100 1021.9
20260507083007 51 337 3.0 4.0 0.00 0.01 0.00 100 1021.9
20260507082504 51 337 4.0 5.0 0.00 0.01 0.00 100 1021.9
20260507082007 51 337 4.0 5.0 0.00 0.01 0.00 100 1021.9
20260507081504 51 337 3.0 4.0 0.00 0.01 0.00 100 1021.9
20260507081007 51 360 2.0 3.0 0.00 0.01 0.00 100 1021.9
20260507080504 51 360 3.0 4.0 0.00 0.01 0.00 100 1021.5
20260507080007 51 337 5.0 7.0 0.00 0.01 0.00 100 1021.5
20260507075504 51 337 6.0 8.0 0.00 0.01 0.00 100 1021.5
20260507075006 51 360 6.0 10.0 0.00 0.01 0.00 100 1021.5
20260507074504 51 337 5.0 7.0 0.00 0.01 0.00 100 1021.2
20260507074007 51 22 6.0 8.0 0.00 0.01 0.00 100 1021.2
20260507073504 51 337 7.0 9.0 0.00 0.01 0.00 100 1021.5
20260507073007 51 337 7.0 9.0 0.00 0.01 0.00 100 1021.5
20260507072504 51 337 6.0 10.0 0.00 0.01 0.00 100 1021.5
20260507072007 51 337 7.0 10.0 0.00 0.01 0.00 100 1021.5
20260507071504 51 337 7.0 9.0 0.00 0.01 0.00 100 1021.5
20260507071007 51 337 7.0 9.0 0.00 0.01 0.00 100 1021.5
20260507070504 51 337 6.0 8.0 0.00 0.01 0.00 100 1021.5
20260507070010 51 337 6.0 7.0 0.00 0.01 0.00 100 1021.5
20260507065536 52 337 6.0 9.0 0.00 0.01 0.00 100 1021.2
20260507065007 52 337 6.0 8.0 0.00 0.01 0.00 100 1021.2
20260507064504 52 337 7.0 8.0 0.00 0.01 0.00 100 1021.2
20260507064007 52 337 6.0 7.0 0.00 0.01 0.00 100 1021.2
20260507063504 52 337 6.0 8.0 0.00 0.01 0.00 100 1021.2
20260507063008 52 337 6.0 7.0 0.00 0.01 0.00 100 1021.2
20260507062505 53 337 7.0 9.0 0.00 0.01 0.00 100 1021.2
20260507062008 54 337 6.0 8.0 0.00 0.01 0.00 99 1021.2
20260507061505 54 360 5.0 6.0 0.00 0.01 0.00 96 1020.9
20260507061008 54 22 5.0 7.0 0.00 0.01 0.00 96 1020.9
20260507060505 54 22 3.0 4.0 0.00 0.01 0.00 94 1020.5
20260507060008 55 22 4.0 5.0 0.00 0.01 0.00 94 1020.5
20260507055504 55 22 4.0 6.0 0.00 0.01 0.00 94 1020.5
20260507055007 55 22 5.0 7.0 0.00 0.01 0.00 94 1020.5
20260507054504 55 45 6.0 7.0 0.00 0.01 0.00 94 1020.5
20260507054007 55 45 6.0 8.0 0.00 0.01 0.00 95 1020.5
20260507053504 55 45 5.0 5.0 0.00 0.01 0.00 95 1020.5
20260507053007 55 22 4.0 6.0 0.00 0.01 0.00 95 1020.5
20260507052504 55 22 6.0 8.0 0.00 0.01 0.00 95 1020.5
20260507052007 55 22 6.0 8.0 0.00 0.01 0.00 95 1020.5
20260507051504 55 45 5.0 8.0 0.00 0.01 0.00 95 1020.5
20260507051007 55 45 6.0 8.0 0.00 0.01 0.00 95 1020.5
20260507050504 55 45 5.0 6.0 0.00 0.01 0.00 94 1020.5
20260507050007 55 45 4.0 5.0 0.00 0.01 0.00 94 1020.5
20260507045503 55 22 5.0 7.0 0.00 0.01 0.01 94 1020.5
20260507045038 55 22 5.0 7.0 0.00 0.01 0.01 94 1020.5
20260507044503 55 22 5.0 6.0 0.00 0.01 0.01 93 1020.5
20260507044006 55 22 5.0 6.0 0.00 0.01 0.01 92 1020.5
20260507043508 56 22 4.0 6.0 0.00 0.01 0.01 91 1020.5
20260507043006 56 22 5.0 6.0 0.00 0.01 0.01 91 1020.5
20260507042509 56 22 6.0 7.0 0.00 0.01 0.01 89 1020.5
20260507042006 56 360 5.0 6.0 0.00 0.01 0.01 88 1020.5
20260507041509 56 22 5.0 6.0 0.00 0.01 0.01 88 1020.2
20260507041006 57 22 5.0 6.0 0.00 0.01 0.01 86 1020.2
20260507040507 57 22 5.0 7.0 0.00 0.01 0.01 86 1019.9
20260507040004 57 22 5.0 6.0 0.00 0.01 0.01 84 1019.9
20260507035503 57 45 5.0 6.0 0.00 0.01 0.01 84 1019.9
20260507035006 57 45 7.0 10.0 0.00 0.01 0.01 83 1019.9
20260507034509 58 67 7.0 9.0 0.00 0.01 0.01 83 1020.2
20260507034006 58 45 7.0 10.0 0.00 0.01 0.01 83 1020.2
20260507033503 58 45 7.0 10.0 0.00 0.01 0.01 83 1019.9
20260507033006 58 22 5.0 8.0 0.00 0.01 0.01 83 1019.9
20260507032503 58 22 8.0 11.0 0.00 0.01 0.01 82 1019.9
20260507032006 58 22 7.0 10.0 0.00 0.01 0.01 82 1019.9